Manipulated Fixed Matches today


Right offer for you if you are interested for betting every day. Everyday we have one fixed match (Tip: 1,X,2). The matches are direct info from the club's no way for lost. We guarantee sure profit every day. Info from first hand. You can subscribe every moment and we will start immediately. Every match you will get minimum 8 hours before start. The matches are available in every bookie. Every day you will get one match with minimum odds 2.00 and maximum 3.50;


Choose One Packet (1,2 or 3)

1# One week daily Subscription cost 70 EUR
2# Two weeks daily Subscription cost 120 EUR
3# One month daily Subscription cost 200 EUR

Choose one payment method:
WesternUnion, Skrill, PayPal, Neteller, Bitcoin, Ria Money.

   SERVICE E-MAIL:   Info.americamatches@gmail.com   
   Phone Number (What's App): +389 78 826 287 (24/7 Online)   


Daily Fixed Match
Archive for September 2019

DATE MATCH TIP ODDS FT
01.09.2019 Vitesse – AZ Alkmaar 1 2.80  2 : 1
02.09.2019 Al-Budaiya – Sitra 2 2.50 0 : 1
03.09.2019 Stockport – AFC Fylde 1 2.40 2 : 1
04.09.2019 Spain U19 – Germany U19 X 3.75 1 : 1
05.09.2019 England U20 – Netherlands U20 X 3.50 0 : 0
06.09.2019 Lommel SK – St. Gilloise X 3.40 2 : 2
07.09.2019 G.A. Eagles – Excelsior X 3.60 2 : 2
08.09.2019 Cruzeiro – Gremio 2 2.90 1 : 4
09.09.2019 Binacional – Garcilaso X 3.30 2 : 2
10.09.2019 Kars 36 Spor – Pazarspor X 3.20 0 : 0
11.09.2019 Industria Galda – Reghin 1 4.33 4 : 3
12.09.2019 Beitar Tel Aviv – Hapoel Katamon 1 2.60 1 : 0
13.09.2019 A. Klagenfurt – A. Lustenau X 3.60 3 : 3
14.09.2019 Maranatha (Tog) – Djoliba (Mli) 2 3.80 1 : 2
15.09.2019 Banfield – Talleres Cordoba 2 4.20 0 : 1
16.09.2019 Nijmegen – Graafschap X 3.60 1 : 1
17.09.2019 Doncaster – Blackpool 2 3.50 0 : 1
18.09.2019        

Daily Fixed Match
Archive for August 2019

DATE MATCH TIP ODDS FT
01.08.2019 Linfield – HB Torshavn 1 2.35 1 : 0
02.08.2019 Pau – Cholet X 3.40 1 : 1
03.08.2019 Bayern II – Viktoria Koln 2 3.30 2 : 5
04.08.2019 Sandnes – Ham Kam 2 3.60 0 : 2
05.08.2019 Voluntari – Poli Iasi X 3.10 0 : 0
06.08.2019 York – Farsley X 4.00 0 : 0
07.08.2019 Doxa – AEL Limassol 1 4.00 3 : 0
08.08.2019 FCSB – Mlada Boleslav X 3.50 0 : 0
09.08.2019 Niort – Chateauroux 1 2.35 3 : 0
10.08.2019 Hearts – Ross County X 3.75 0 : 0
11.08.2019 Lokeren – Lommel SK X 3.60 0 : 0
12.08.2019 H.Raanana – Ashdod 2 2.40 1 : 4
13.08.2019 Eastleigh – Sutton X 3.40 1 : 1
14.08.2019 Pereira – Aguilas 1 2.40 1 : 0
15.08.2019 Dinamo Tbilisi (Geo) – Feyenoord (Ned) X 4.00 1 : 1
16.08.2019 MC Alger – Mlila X 4.00 1 : 1
17.08.2019 Estudiantes Rio Cuarto – Temperley 1 2.50 3 : 0
18.08.2019 Confianca  – Treze PB 2 4.50 0 : 1
19.08.2019 Sheffield Utd U23 – Watford U23 2 3.50 1 : 2
20.08.2019 Turnu Magurele – FC Rapid Bucuresti 1 3.80 3 : 1
21.08.2019 Duisburg U19 – Bochum U19 1 3.15 3 : 1
22.08.2019 Navbahor Namangan – Nasaf Qarshi 2 3.13 0 : 1
23.08.2019 Dnyapro – FC Minsk 1 2.50 1 : 0
24.08.2019 Krasnodar – Lokomotiv Moscow X 3.20 1 : 1
25.08.2019 CSA – Cruzeiro X 3.30 1 : 1
26.08.2019 Braintree – Dorking 1 2.37 3 : 2
27.08.2019 Halmstad – Jonkopings 2 3.20 1 : 2
28.08.2019 Baroka – Supersport Utd 2 2.45 0 : 2
29.08.2019 Beitar – Tel Aviv Ashkelon 2 2.90 1 : 3
30.08.2019 Always Ready – San Jose 2 4.33 2 : 4
31.08.2019 Bronshoj – B.93 2 4.00 1 : 3

Leave a Reply

Your email address will not be published. Required fields are marked *